Weather in Ouahigouya

Burkina Faso     13°33′53″N   2°24′47″W
temp.,
°C
wind,
m/s
gust,
m/s
humid.,
%
clouds,
%
prec.,
mm/h
press.,
hPa
HPBL,
m
6 march, sat
sat600:00+28ne45141 0.0 100959
03:00+26ene451550 0.0 100875
06:00+24ene451625 0.0 100969
09:00+31e5811100 0.0 1012501
12:00+38ese671480 0.0 10102466
15:00+39sse441577 0.0 10063509
18:00+36ssw341766 0.0 100766
21:00+32ese342194 0.0 100934
7 march, sun
sun700:00+27sse123468 0.0 101024
03:00+27ene23220 0.0 100926
06:00+27ssw232023 0.0 101024
09:00+33wnw442822 0.0 1012464
12:00+39nne111722 0.0 10102833
15:00+40se111427 0.0 10063913
18:00+36s121863 0.0 100663
21:00+32sse452992 0.0 100884
8 march, mon
mon800:00+29ese233496 0.0 100828
03:00+27sse123442 0.0 100624
06:00+28se342126 0.0 100726
09:00+34ssw22123 0.0 1009451
12:00+39s23838 0.0 10072541
15:00+41sse12827 0.0 10034141
18:00+35ese111213 0.0 100325
21:00+30se34130 0.0 100627
9 march, tue
tue900:00+26nne12170 0.0 100624
03:00+24se11230 0.0 100524
06:00+24ese23200 0.0 100525
09:00+33ese34110 0.0 1007436
12:00+39sse33120 0.0 10051778
15:00+41ssw12110 0.0 10014015
18:00+36sse12160 0.0 100225
21:00+33nne221625 0.0 100424
10 march, wed
wed1000:00+32s121763 0.0 100625
03:00+30ssw232155 0.0 100565
06:00+26nne231864 0.0 100661
09:00+32ne44135 0.0 1009530
12:00+38nne33125 0.0 10071377
15:00+40ne321131 0.0 10033103
18:00+37nne341417 0.0 100348
21:00+32nne45143 0.0 100682